Location: Unspecified
(0.0000°N, 0.0000°E)
Time: 19:55:52
(UTC+00:00)

Tiros 1 despin weight - Pass Details

Date: 04 June 2022
Orbit: 591 x 639 km, 48.2° (Epoch: 25 June)

Event Time Altitude Azimuth Distance (km) Brightness Sun altitude
Rises 23:22:03 0° 316° (NW) 2,806 - -65.8°
Reaches altitude 10° 23:24:20 10° 313° (NW) 1,906 - -66.0°
Maximum altitude 23:28:40 66° 231° (SW) 642 - -66.3°
Drops below altitude 10° 23:33:01 10° 149° (SSE) 1,918 - -66.6°
Sets 23:35:20 0° 146° (SE) 2,826 - -66.8°
